Location: Godiavel Galaoual
(15.2485°N, 12.6604°W)
Time: 01:09:24
(UTC+00:00)

Explorer 7 - Pass Details

Date: 23 June 2021
Orbit: 484 x 676 km, 50.3° (Epoch: 29 July)

Event Time Altitude Azimuth Distance (km) Brightness Sun altitude
Rises 17:20:22 0° 196° (SSW) 2,864 10.5 26.9°
Reaches altitude 10° 17:22:51 10° 185° (S) 1,993 9.6 26.4°
Maximum altitude 17:26:51 29° 125° (SE) 1,179 8.2 25.4°
Drops below altitude 10° 17:30:59 10° 65° (ENE) 2,074 9.4 24.5°
Sets 17:33:36 0° 55° (NE) 3,003 10.3 23.9°
